Tracking 30509 objects as of 18-May-2025
HD Live streaming from Space Station
objects crossing your sky now

STARLINK-5716

Track STARLINK-5716 now!
10-day predictions
STARLINK-5716 is classified as:


NORAD ID: 56504
Int'l Code: 2023-065B
Perigee: 565.4 km
Apogee: 567.0 km
Inclination: 43.0 °
Period: 95.8 minutes
Semi major axis: 6937 km
RCS: Unknown
Launch date: May 14, 2023
Source: United States (US)
Launch site: AIR FORCE EASTERN TEST RANGE (AFETR)
Your satellite tracking list
Your tracking list is empty




NASA's NSSDC Master Catalog

Two Line Element Set (TLE):
1 56504U 23065B   25138.08091189  .00000346  00000-0  40696-4 0  9993
2 56504  43.0041  16.9338 0001182 262.4493  97.6215 15.02533990111376
Source of the keplerian elements: AFSPC